User: anonymous   Login
Location: Unspecified
(0.0000°N, 0.0000°E)
Time: 15:05:50
(UTC+00:00)
Language:

JY1SAT - Orbit

View from above orbital plane
View from above orbital plane
View from above satellite
View from above satellite

Ground track
Ground track

The orbit data is extracted from the following two-line orbital elements,

1 43803U 18099AX  21269.13608512  .00001342  00000-0  12447-3 0  9992
2 43803  97.6544 337.5507 0016520  76.1253 284.1805 14.95987771153547
Epoch (UTC): 26 September 2021 03:15:57
Eccentricity: 0.0016520
inclination: 97.6544°
perigee height: 568 km
apogee height: 591 km
right ascension of ascending node: 337.5507°
argument of perigee: 76.1253°
revolutions per day: 14.95987771
mean anomaly at epoch: 284.1805°
orbit number at epoch: 15354

The dashed part of the orbit path shows where the satellite is in the earth's shadow,  

DLR